OK,463,101,915,463,2014-10-01T01:40:00,0,28072685,201589
OK,463,101,915,463,2014-10-01T01:45:00,0,28073132,201589
OK,463,101,915,463,2014-10-01T01:50:00,0,28073580,201589
OK,463,101,915,463,2014-10-01T01:55:00,0,28073898,201589
OK,463,101,915,463,2014-10-01T02:00:00,0,28074347,201589
OK,463,101,915,463,2014-10-01T02:05:00,0,28074788,201589
OK,463,101,915,463,2014-10-01T02:10:00,0,28075236,201589
OK,463,101,915,463,2014-10-01T02:15:00,0,28075685,201589
OK,463,101,915,463,2014-10-01T02:20:00,0,28076070,201589
OK,463,101,915,463,2014-10-01T02:25:00,0,28076517,201589
OK,463,101,915,463,2014-10-01T02:30:00,0,28076966,201589
OK,463,101,915,463,2014-10-01T02:35:00,0,28077415,201589
OK,463,101,915,463,2014-10-01T02:40:00,0,28077818,201589
OK,463,101,915,463,2014-10-01T02:45:00,0,28078267,201589
OK,463,101,915,463,2014-10-01T02:50:00,0,28078712,201589
OK,463,101,915,463,2014-10-01T02:55:00,0,28079161,201589
OK,463,101,915,463,2014-10-01T03:00:00,0,28079603,201589
OK,463,101,915,463,2014-10-01T03:05:00,0,28080052,201589
OK,463,101,915,463,2014-10-01T03:10:00,0,28080386,201589
OK,463,101,915,463,2014-10-01T03:15:00,0,28080835,201589
OK,463,101,915,463,2014-10-01T03:20:00,0,28081284,201589
OK,463,101,915,463,2014-10-01T03:25:00,0,28081731,201589
OK,463,101,915,463,2014-10-01T03:30:00,0,28082180,201589
OK,463,101,915,463,2014-10-01T03:35:00,0,28082613,201589
OK,624,75,915,624,2014-10-01T03:40:00,2,28083045,201589
OK,624,75,915,624,2014-10-01T03:45:00,0,28083494,201589
OK,624,75,915,624,2014-10-01T03:50:00,0,28083943,201589
OK,581,80,915,581,2014-10-01T03:55:00,1,28084385,201589
OK,581,80,915,581,2014-10-01T04:00:00,1,28084810,201589
OK,581,80,915,581,2014-10-01T04:05:00,0,28085258,201589
OK,581,80,915,581,2014-10-01T04:10:00,0,28085703,201589
OK,581,80,915,581,2014-10-01T04:15:00,0,28086152,201589
OK,581,80,915,581,2014-10-01T04:20:00,0,28086594,201589
OK,581,80,915,581,2014-10-01T04:25:00,0,28087043,201589
OK,581,80,915,581,2014-10-01T04:30:00,0,28087488,201589
OK,581,80,915,581,2014-10-01T04:35:00,0,28087937,201589
OK,581,80,915,581,2014-10-01T04:40:00,0,28088362,201589
OK,625,75,915,625,2014-10-01T04:45:00,4,28088810,201589
OK,619,76,915,619,2014-10-01T04:50:00,6,28089240,201589
OK,631,74,915,631,2014-10-01T04:55:00,5,28089689,201589
OK,637,73,915,637,2014-10-01T05:00:00,7,28090138,201589
OK,646,72,915,646,2014-10-01T05:05:00,7,28090489,201589
OK,646,72,915,646,2014-10-01T05:10:00,4,28090931,201589
OK,655,71,915,655,2014-10-01T05:15:00,2,28091380,201589
OK,613,76,915,613,2014-10-01T05:20:00,2,28091797,201589
OK,582,80,915,582,2014-10-01T05:25:00,1,28092246,201589
OK,674,69,915,674,2014-10-01T05:30:00,1,28092690,201589
OK,647,72,915,647,2014-10-01T05:35:00,5,28093131,201589
OK,645,72,915,645,2014-10-01T05:40:00,6,28093562,201589
OK,607,77,915,607,2014-10-01T05:45:00,6,28094011,201589
OK,614,76,915,614,2014-10-01T05:50:00,7,28094423,201589
OK,621,75,915,621,2014-10-01T05:55:00,7,28094867,201589
OK,612,76,915,612,2014-10-01T06:00:00,6,28095314,201589
OK,609,77,915,609,2014-10-01T06:05:00,6,28095763,201589
OK,597,78,915,597,2014-10-01T06:10:00,5,28096176,201589
OK,615,76,915,615,2014-10-01T06:15:00,6,28096625,201589
OK,615,76,915,615,2014-10-01T06:20:00,6,28097059,201589
OK,634,74,915,634,2014-10-01T06:25:00,5,28097508,201589
OK,596,78,915,596,2014-10-01T06:30:00,4,28097957,201589
OK,599,78,915,599,2014-10-01T06:35:00,6,28098395,201589
OK,593,79,915,593,2014-10-01T06:40:00,8,28098838,201589
OK,592,79,915,592,2014-10-01T06:45:00,6,28099286,201589
OK,593,79,915,593,2014-10-01T06:50:00,5,28099629,201589
OK,634,74,915,634,2014-10-01T06:55:00,6,28100078,201589
OK,633,74,915,633,2014-10-01T07:00:00,8,28100385,201589
OK,639,73,915,639,2014-10-01T07:05:00,7,28100834,201589
OK,643,73,915,643,2014-10-01T07:10:00,4,28101205,201589
OK,885,53,915,885,2014-10-01T07:15:00,4,28101654,201589
OK,1059,44,915,1059,2014-10-01T07:20:00,3,28102090,201589
OK,601,78,915,601,2014-10-01T07:25:00,3,28102539,201589
OK,611,76,915,611,2014-10-01T07:30:00,4,28102969,201589
OK,595,79,915,595,2014-10-01T07:35:00,8,28103413,201589
OK,598,78,915,598,2014-10-01T07:40:00,9,28103858,201589
OK,598,78,915,598,2014-10-01T07:45:00,6,28104303,201589
OK,608,77,915,608,2014-10-01T07:50:00,4,28104745,201589
OK,651,72,915,651,2014-10-01T07:55:00,1,28105189,201589
OK,669,70,915,669,2014-10-01T08:00:00,3,28105629,201589
OK,599,78,915,599,2014-10-01T08:05:00,5,28106078,201589
OK,592,79,915,592,2014-10-01T08:10:00,2,28106515,201589
OK,615,76,915,615,2014-10-01T08:15:00,4,28106921,201589
OK,615,76,915,615,2014-10-01T08:20:00,6,28107353,201589
OK,614,76,915,614,2014-10-01T08:25:00,3,28107802,201589
OK,628,74,915,628,2014-10-01T08:30:00,2,28108241,201589
OK,628,74,915,628,2014-10-01T08:35:00,2,28108690,201589
OK,628,74,915,628,2014-10-01T08:40:00,0,28109118,201589
OK,623,75,915,623,2014-10-01T08:45:00,2,28109567,201589
OK,607,77,915,607,2014-10-01T08:50:00,3,28109910,201589
OK,672,70,915,672,2014-10-01T08:55:00,2,28110359,201589
OK,1024,45,915,1024,2014-10-01T09:00:00,1,28110782,201589
OK,850,55,915,850,2014-10-01T09:05:00,2,28111231,201589
OK,676,69,915,676,2014-10-01T09:10:00,1,28111660,201589
OK,676,69,915,676,2014-10-01T09:15:00,0,28112109,201589
OK,594,79,915,594,2014-10-01T09:20:00,1,28112450,201589
OK,588,80,915,588,2014-10-01T09:25:00,4,28112899,201589
OK,586,80,915,586,2014-10-01T09:30:00,3,28113323,201589
OK,543,86,915,543,2014-10-01T09:35:00,1,28113772,201589
OK,543,86,915,543,2014-10-01T09:40:00,1,28114204,201589
OK,675,69,915,675,2014-10-01T09:45:00,6,28114653,201589
OK,674,69,915,674,2014-10-01T09:50:00,5,28115007,201589
OK,643,73,915,643,2014-10-01T09:55:00,1,28115456,201589
OK,607,77,915,607,2014-10-01T10:00:00,2,28115868,201589
OK,576,81,915,576,2014-10-01T10:05:00,6,28116317,201589
OK,571,82,915,571,2014-10-01T10:10:00,5,28116725,201589
OK,619,76,915,619,2014-10-01T10:15:00,1,28117174,201589
OK,594,79,915,594,2014-10-01T10:20:00,1,28117599,201589
OK,595,79,915,595,2014-10-01T10:25:00,6,28118048,201589
OK,615,76,915,615,2014-10-01T10:30:00,3,28118493,201589
OK,626,75,915,626,2014-10-01T10:35:00,3,28118940,201589
OK,619,76,915,619,2014-10-01T10:40:00,6,28119384,201589
OK,602,78,915,602,2014-10-01T10:45:00,6,28119832,201589
OK,577,81,915,577,2014-10-01T10:50:00,2,28120280,201589
OK,608,77,915,608,2014-10-01T10:55:00,2,28120729,201589
OK,608,77,915,608,2014-10-01T11:00:00,2,28121112,201589
OK,613,76,915,613,2014-10-01T11:05:00,4,28121561,201589
OK,605,77,915,605,2014-10-01T11:10:00,4,28121999,201589
OK,615,76,915,615,2014-10-01T11:15:00,7,28122448,201589
OK,606,77,915,606,2014-10-01T11:20:00,6,28122889,201589
OK,597,78,915,597,2014-10-01T11:25:00,5,28123338,201589
OK,616,76,915,616,2014-10-01T11:30:00,3,28123770,201589
OK,599,78,915,599,2014-10-01T11:35:00,3,28124219,201589
OK,601,78,915,601,2014-10-01T11:40:00,3,28124621,201589
OK,613,76,915,613,2014-10-01T11:45:00,3,28125070,201589
OK,595,79,915,595,2014-10-01T11:50:00,3,28125499,201589
OK,607,77,915,607,2014-10-01T11:55:00,8,28125948,201589
OK,607,77,915,607,2014-10-01T12:00:00,8,28126300,201589
OK,588,80,915,588,2014-10-01T12:05:00,9,28126749,201589
OK,591,79,915,591,2014-10-01T12:10:00,7,28127198,201589
OK,608,77,915,608,2014-10-01T12:15:00,1,28127647,201589
OK,606,77,915,606,2014-10-01T12:20:00,12,28128075,201589
OK,601,78,915,601,2014-10-01T12:25:00,10,28128524,201589
OK,602,78,915,602,2014-10-01T12:30:00,7,28128959,201589
OK,619,76,915,619,2014-10-01T12:35:00,8,28129408,201589
OK,619,76,915,619,2014-10-01T12:40:00,7,28129842,201589
OK,603,78,915,603,2014-10-01T12:45:00,1,28130291,201589
OK,591,79,915,591,2014-10-01T12:50:00,2,28130719,201589
OK,601,78,915,601,2014-10-01T12:55:00,5,28131168,201589
OK,603,78,915,603,2014-10-01T13:00:00,6,28131605,201589
OK,612,76,915,612,2014-10-01T13:05:00,5,28132054,201589
OK,622,75,915,622,2014-10-01T13:10:00,6,28132492,201589
OK,615,76,915,615,2014-10-01T13:15:00,9,28132939,201589
OK,607,77,915,607,2014-10-01T13:20:00,8,28133377,201589
OK,613,76,915,613,2014-10-01T13:25:00,7,28133826,201589
OK,618,76,915,618,2014-10-01T13:30:00,10,28134265,201589
OK,613,76,915,613,2014-10-01T13:35:00,8,28134714,201589
OK,637,73,915,637,2014-10-01T13:40:00,10,28135133,201589
OK,637,73,915,637,2014-10-01T13:45:00,10,28135582,201589
OK,630,74,915,630,2014-10-01T13:50:00,9,28136019,201589
OK,618,76,915,618,2014-10-01T13:55:00,16,28136468,201589
OK,614,76,915,614,2014-10-01T14:00:00,14,28136908,201589
OK,625,75,915,625,2014-10-01T14:05:00,10,28137357,201589
OK,614,76,915,614,2014-10-01T14:10:00,8,28137791,201589
OK,624,75,915,624,2014-10-01T14:15:00,8,28138240,201589
OK,615,76,915,615,2014-10-01T14:20:00,13,28138668,201589
OK,620,75,915,620,2014-10-01T14:25:00,10,28139117,201589
OK,652,72,915,652,2014-10-01T14:30:00,11,28139528,201589
OK,651,72,915,651,2014-10-01T14:35:00,15,28139977,201589
OK,632,74,915,632,2014-10-01T14:40:00,13,28140419,201589
OK,606,77,915,606,2014-10-01T14:45:00,10,28140868,201589
OK,606,77,915,606,2014-10-01T14:50:00,12,28141294,201589
OK,602,78,915,602,2014-10-01T14:55:00,7,28141743,201589
OK,597,78,915,597,2014-10-01T15:00:00,9,28142171,201589
OK,605,77,915,605,2014-10-01T15:05:00,13,28142620,201589
OK,615,76,915,615,2014-10-01T15:10:00,14,28143047,201589
OK,625,75,915,625,2014-10-01T15:15:00,14,28143496,201589
OK,607,77,915,607,2014-10-01T15:20:00,10,28143944,201589
OK,589,79,915,589,2014-10-01T15:25:00,5,28144393,201589
OK,599,78,915,599,2014-10-01T15:30:00,4,28144815,201589
OK,627,75,915,627,2014-10-01T15:35:00,4,28145228,201589
OK,624,75,915,624,2014-10-01T15:40:00,5,28145677,201589
OK,597,78,915,597,2014-10-01T15:45:00,5,28146126,201589
OK,568,82,915,568,2014-10-01T15:50:00,3,28146575,201589
OK,585,80,915,585,2014-10-01T15:55:00,2,28146984,201589
OK,610,77,915,610,2014-10-01T16:00:00,5,28147427,201589
OK,610,77,915,610,2014-10-01T16:05:00,7,28147876,201589
OK,597,78,915,597,2014-10-01T16:10:00,6,28148277,201589
OK,603,78,915,603,2014-10-01T16:15:00,3,28148726,201589
OK,592,79,915,592,2014-10-01T16:20:00,2,28149165,201589
OK,590,79,915,590,2014-10-01T16:25:00,2,28149614,201589
OK,590,79,915,590,2014-10-01T16:30:00,1,28150040,201589
OK,565,83,915,565,2014-10-01T16:35:00,2,28150489,201589
OK,566,83,915,566,2014-10-01T16:40:00,1,28150907,201589
OK,585,80,915,585,2014-10-01T16:45:00,5,28151356,201589
OK,585,80,915,585,2014-10-01T16:50:00,5,28151805,201589
OK,589,79,915,589,2014-10-01T17:00:00,4,28152254,201589
OK,607,77,915,607,2014-10-01T17:05:00,2,28152700,201589
OK,573,82,915,573,2014-10-01T17:10:00,5,28153147,201589
OK,569,82,915,569,2014-10-01T17:15:00,4,28153596,201589
OK,578,81,915,578,2014-10-01T17:20:00,1,28154006,201589
OK,578,81,915,578,2014-10-01T17:25:00,3,28154455,201589
OK,601,78,915,601,2014-10-01T17:30:00,4,28154897,201589
OK,610,77,915,610,2014-10-01T17:35:00,5,28155345,201589
OK,619,76,915,619,2014-10-01T17:40:00,3,28155763,201589
OK,610,77,915,610,2014-10-01T17:45:00,2,28156212,201589
OK,604,77,915,604,2014-10-01T17:50:00,2,28156661,201589
OK,604,77,915,604,2014-10-01T17:55:00,4,28157099,201589
OK,577,81,915,577,2014-10-01T18:00:00,4,28157529,201589
OK,577,81,915,577,2014-10-01T18:05:00,4,28157977,201589
OK,596,78,915,596,2014-10-01T18:10:00,2,28158421,201589
OK,578,81,915,578,2014-10-01T18:15:00,1,28158867,201589
OK,593,79,915,593,2014-10-01T18:20:00,1,28159313,201589
OK,593,79,915,593,2014-10-01T18:25:00,1,28159648,201589
OK,560,84,915,560,2014-10-01T18:30:00,1,28160097,201589
OK,549,85,915,549,2014-10-01T18:35:00,2,28160546,201589
OK,557,84,915,557,2014-10-01T18:40:00,3,28160984,201589
OK,577,81,915,577,2014-10-01T18:45:00,6,28161433,201589
OK,554,84,915,554,2014-10-01T18:50:00,4,28161850,201589
OK,541,86,915,541,2014-10-01T18:55:00,1,28162299,201589
OK,565,83,915,565,2014-10-01T19:00:00,2,28162694,201589
OK,574,81,915,574,2014-10-01T19:05:00,2,28163132,201589
OK,559,84,915,559,2014-10-01T19:10:00,1,28163580,201589
OK,559,84,915,559,2014-10-01T19:15:00,0,28164029,201589
OK,559,84,915,559,2014-10-01T19:20:00,0,28164460,201589
OK,575,81,915,575,2014-10-01T19:25:00,1,28164909,201589
OK,595,79,915,595,2014-10-01T19:30:00,2,28165334,201589
OK,615,76,915,615,2014-10-01T19:35:00,0,28165782,201589
OK,527,89,915,527,2014-10-01T19:40:00,2,28166223,201589
OK,519,90,915,519,2014-10-01T19:45:00,1,28166585,201589
OK,617,76,915,617,2014-10-01T19:50:00,2,28167034,201589
OK,617,76,915,617,2014-10-01T19:55:00,2,28167463,201589
OK,549,85,915,549,2014-10-01T20:00:00,2,28167896,201589
OK,549,85,915,549,2014-10-01T20:05:00,2,28168345,201589
OK,524,89,915,524,2014-10-01T20:10:00,1,28168790,201589
OK,524,89,915,524,2014-10-01T20:15:00,0,28169239,201589
OK,524,89,915,524,2014-10-01T20:20:00,0,28169687,201589
OK,524,89,915,524,2014-10-01T20:25:00,0,28170113,201589
OK,527,89,915,527,2014-10-01T20:30:00,1,28170558,201589
OK,609,77,915,609,2014-10-01T20:35:00,2,28171006,201589
OK,635,74,915,635,2014-10-01T20:40:00,3,28171443,201589
OK,582,80,915,582,2014-10-01T20:45:00,3,28171889,201589
OK,570,82,915,570,2014-10-01T20:50:00,2,28172337,201589
OK,558,84,915,558,2014-10-01T20:55:00,1,28172783,201589
OK,558,84,915,558,2014-10-01T21:00:00,0,28173229,201589
OK,558,84,915,558,2014-10-01T21:05:00,0,28173678,201589
OK,558,84,915,558,2014-10-01T21:10:00,0,28174119,201589
OK,558,84,915,558,2014-10-01T21:15:00,0,28174568,201589
OK,558,84,915,558,2014-10-01T21:20:00,0,28174994,201589
OK,558,84,915,558,2014-10-01T21:25:00,0,28175390,201589
OK,558,84,915,558,2014-10-01T21:30:00,0,28175839,201589
OK,558,84,915,558,2014-10-01T21:35:00,0,28176288,201589
OK,558,84,915,558,2014-10-01T21:40:00,0,28176737,201589
OK,577,81,915,577,2014-10-01T21:45:00,1,28177094,201589
OK,589,79,915,589,2014-10-01T21:50:00,1,28177533,201589
OK,589,79,915,589,2014-10-01T21:55:00,0,28177979,201589
OK,589,79,915,589,2014-10-01T22:00:00,0,28178428,201589
OK,589,79,915,589,2014-10-01T22:05:00,0,28178875,201589
OK,589,79,915,589,2014-10-01T22:10:00,0,28179309,201589
OK,589,79,915,589,2014-10-01T22:15:00,0,28179752,201589
OK,589,79,915,589,2014-10-01T22:20:00,0,28180199,201589
OK,589,79,915,589,2014-10-01T22:25:00,0,28180597,201589
OK,496,94,915,496,2014-10-01T22:30:00,1,28181046,201589
OK,496,94,915,496,2014-10-01T22:35:00,1,28181470,201589
OK,496,94,915,496,2014-10-01T22:40:00,0,28181918,201589
OK,496,94,915,496,2014-10-01T22:45:00,0,28182365,201589
OK,496,94,915,496,2014-10-01T22:50:00,0,28182814,201589
OK,496,94,915,496,2014-10-01T22:55:00,0,28183231,201589
OK,496,94,915,496,2014-10-01T23:00:00,0,28183664,201589
OK,496,94,915,496,2014-10-01T23:05:00,0,28184109,201589
OK,496,94,915,496,2014-10-01T23:10:00,0,28184558,201589
OK,496,94,915,496,2014-10-01T23:15:00,0,28184993,201589
OK,496,94,915,496,2014-10-01T23:20:00,0,28185441,201589
OK,496,94,915,496,2014-10-01T23:25:00,0,28185872,201589
OK,496,94,915,496,2014-10-01T23:30:00,0,28186264,201589
OK,496,94,915,496,2014-10-01T23:40:00,0,28187111,201589
OK,496,94,915,496,2014-10-01T23:55:00,0,28188443,201589
OK,496,94,915,496,2014-10-02T00:00:00,0,28188879,201589
OK,496,94,915,496,2014-10-02T00:05:00,0,28189328,201589
OK,496,94,915,496,2014-10-02T00:10:00,0,28189750,201589
OK,496,94,915,496,2014-10-02T00:15:00,0,28190199,201589
OK,496,94,915,496,2014-10-02T00:20:00,0,28190552,201589
OK,496,94,915,496,2014-10-02T00:30:00,0,28191450,201589
OK,496,94,915,496,2014-10-02T00:35:00,0,28191756,201589
OK,496,94,915,496,2014-10-02T00:40:00,0,28192205,201589
OK,496,94,915,496,2014-10-02T00:45:00,0,28192638,201589
OK,496,94,915,496,2014-10-02T00:50:00,0,28193082,201589
OK,496,94,915,496,2014-10-02T00:55:00,0,28193449,201589
OK,496,94,915,496,2014-10-02T01:05:00,0,28194347,201589
OK,496,94,915,496,2014-10-02T01:10:00,0,28194796,201589
OK,496,94,915,496,2014-10-02T01:15:00,0,28195038,201589
OK,496,94,915,496,2014-10-02T01:30:00,0,28195930,201589
OK,496,94,915,496,2014-10-02T01:35:00,0,28196663,201589
OK,496,94,915,496,2014-10-02T01:40:00,0,28197086,201589
OK,496,94,915,496,2014-10-02T01:45:00,0,28197535,201589
OK,496,94,915,496,2014-10-02T01:50:00,0,28197983,201589
OK,496,94,915,496,2014-10-02T01:55:00,0,28198431,201589
OK,496,94,915,496,2014-10-02T02:00:00,0,28198880,201589
OK,496,94,915,496,2014-10-02T02:05:00,0,28199254,201589
OK,496,94,915,496,2014-10-02T02:10:00,0,28199694,201589
OK,496,94,915,496,2014-10-02T02:15:00,0,28200136,201589
OK,496,94,915,496,2014-10-02T02:20:00,0,28200579,201589
OK,496,94,915,496,2014-10-02T02:25:00,0,28201028,201589
OK,496,94,915,496,2014-10-02T02:30:00,0,28201459,201589
OK,496,94,915,496,2014-10-02T02:45:00,0,28202357,201589
OK,496,94,915,496,2014-10-02T02:50:00,0,28202799,201589
OK,496,94,915,496,2014-10-02T02:55:00,0,28203247,201589
OK,496,94,915,496,2014-10-02T03:00:00,0,28203682,201589
OK,496,94,915,496,2014-10-02T03:10:00,0,28204131,201589
OK,496,94,915,496,2014-10-02T03:25:00,0,28204580,201589
OK,496,94,915,496,2014-10-02T03:30:00,0,28205029,201589
OK,496,94,915,496,2014-10-02T03:35:00,0,28205457,201589
OK,496,94,915,496,2014-10-02T03:40:00,0,28205904,201589
OK,563,83,915,563,2014-10-02T03:45:00,0,28206287,201589
OK,563,83,915,563,2014-10-02T03:55:00,0,28207185,201589
OK,593,79,915,593,2014-10-02T04:00:00,1,28207605,201589
OK,593,79,915,593,2014-10-02T04:05:00,0,28208053,201589
OK,593,79,915,593,2014-10-02T04:10:00,0,28208480,201589
OK,593,79,915,593,2014-10-02T04:15:00,0,28208929,201589
OK,592,79,915,592,2014-10-02T04:20:00,2,28209367,201589
OK,592,79,915,592,2014-10-02T04:25:00,0,28209816,201589
OK,558,84,915,558,2014-10-02T04:30:00,1,28210239,201589
OK,558,84,915,558,2014-10-02T04:35:00,0,28210688,201589
OK,565,83,915,565,2014-10-02T04:40:00,1,28211113,201589
OK,565,83,915,565,2014-10-02T04:45:00,0,28211557,201589
OK,565,83,915,565,2014-10-02T04:50:00,0,28211935,201589
OK,629,74,915,629,2014-10-02T04:55:00,1,28212384,201589
OK,629,74,915,629,2014-10-02T05:00:00,0,28212813,201589
OK,599,78,915,599,2014-10-02T05:05:00,0,28213262,201589
OK,599,78,915,599,2014-10-02T05:10:00,0,28213700,201589
OK,562,83,915,562,2014-10-02T05:15:00,0,28214149,201589
OK,562,83,915,562,2014-10-02T05:20:00,0,28214562,201589
OK,594,79,915,594,2014-10-02T05:25:00,5,28215011,201589
OK,580,81,915,580,2014-10-02T05:30:00,1,28215427,201589
OK,580,81,915,580,2014-10-02T05:35:00,0,28215876,201589
OK,604,77,915,604,2014-10-02T05:40:00,4,28216221,201589
OK,604,77,915,604,2014-10-02T05:45:00,0,28216655,201589
OK,604,77,915,604,2014-10-02T05:50:00,0,28217102,201589
OK,608,77,915,608,2014-10-02T05:55:00,4,28217551,201589
OK,610,77,915,610,2014-10-02T06:00:00,4,28217990,201589
OK,604,77,915,604,2014-10-02T06:05:00,3,28218439,201589
OK,552,85,915,552,2014-10-02T06:10:00,1,28218859,201589
OK,588,80,915,588,2014-10-02T06:15:00,4,28219308,201589
OK,634,74,915,634,2014-10-02T06:20:00,1,28219681,201589
OK,611,76,915,611,2014-10-02T06:25:00,6,28220130,201589
OK,611,76,915,611,2014-10-02T06:30:00,8,28220564,201589
OK,595,79,915,595,2014-10-02T06:35:00,5,28221013,201589
OK,585,80,915,585,2014-10-02T06:40:00,7,28221396,201589
OK,594,79,915,594,2014-10-02T06:45:00,6,28221680,201589
OK,598,78,915,598,2014-10-02T07:00:00,2,28222274,201589
OK,581,80,915,581,2014-10-02T07:05:00,3,28222723,201589
OK,566,83,915,566,2014-10-02T07:10:00,4,28223154,201589
OK,567,82,915,567,2014-10-02T07:15:00,1,28223590,201589
OK,567,82,915,567,2014-10-02T07:20:00,0,28224037,201589
OK,861,54,915,861,2014-10-02T07:25:00,2,28224392,201589
OK,1124,41,915,1124,2014-10-02T07:30:00,0,28224841,201589
OK,623,75,915,623,2014-10-02T07:35:00,4,28225290,201589
OK,625,75,915,625,2014-10-02T07:40:00,2,28225612,201589
OK,625,75,915,625,2014-10-02T07:50:00,4,28226502,201589
OK,620,75,915,620,2014-10-02T07:55:00,2,28226951,201589
OK,623,75,915,623,2014-10-02T08:00:00,1,28227366,201589
OK,605,77,915,605,2014-10-02T08:05:00,4,28227815,201589
OK,605,77,915,605,2014-10-02T08:10:00,4,28228174,201589
OK,595,79,915,595,2014-10-02T08:15:00,4,28228623,201589
OK,600,78,915,600,2014-10-02T08:20:00,1,28229033,201589
OK,608,77,915,608,2014-10-02T08:25:00,0,28229482,201589
OK,608,77,915,608,2014-10-02T08:30:00,0,28229832,201589
OK,556,84,915,556,2014-10-02T08:35:00,0,28230281,201589
OK,556,84,915,556,2014-10-02T08:40:00,0,28230648,201589
OK,556,84,915,556,2014-10-02T08:45:00,0,28231096,201589
OK,619,76,915,619,2014-10-02T08:50:00,3,28231519,201589
OK,621,75,915,621,2014-10-02T08:55:00,0,28231968,201589
OK,610,77,915,610,2014-10-02T09:00:00,3,28232310,201589
OK,592,79,915,592,2014-10-02T09:10:00,0,28232759,201589
OK,628,74,915,628,2014-10-02T09:15:00,2,28233208,201589
OK,645,72,915,645,2014-10-02T09:20:00,1,28233632,201589
OK,622,75,915,622,2014-10-02T09:25:00,4,28234081,201589
OK,618,76,915,618,2014-10-02T09:30:00,1,28234414,201589
OK,618,76,915,618,2014-10-02T09:35:00,0,28234863,201589
OK,618,76,915,618,2014-10-02T09:40:00,0,28235290,201589
OK,579,81,915,579,2014-10-02T09:45:00,1,28235739,201589
OK,579,81,915,579,2014-10-02T09:50:00,0,28236182,201589
OK,586,80,915,586,2014-10-02T09:55:00,5,28236629,201589
OK,616,76,915,616,2014-10-02T10:00:00,1,28237032,201589
OK,616,76,915,616,2014-10-02T10:05:00,0,28237480,201589
OK,597,78,915,597,2014-10-02T10:10:00,7,28237928,201589
OK,614,76,915,614,2014-10-02T10:15:00,4,28238375,201589
OK,652,72,915,652,2014-10-02T10:20:00,5,28238816,201589
OK,664,70,915,664,2014-10-02T10:25:00,3,28239265,201589
OK,756,62,915,756,2014-10-02T10:30:00,0,28239695,201589
OK,619,76,915,619,2014-10-02T10:35:00,9,28240144,201589
OK,598,78,915,598,2014-10-02T10:40:00,4,28240588,201589
OK,645,72,915,645,2014-10-02T10:45:00,3,28241037,201589
OK,653,72,915,653,2014-10-02T10:50:00,1,28241469,201589
OK,601,78,915,601,2014-10-02T10:55:00,8,28241917,201589
OK,580,81,915,580,2014-10-02T11:00:00,3,28242313,201589
OK,579,81,915,579,2014-10-02T11:05:00,0,28242762,201589
OK,602,78,915,602,2014-10-02T11:10:00,2,28243211,201589
OK,599,78,915,599,2014-10-02T11:15:00,1,28243546,201589
OK,626,75,915,626,2014-10-02T11:20:00,1,28243974,201589
OK,626,75,915,626,2014-10-02T11:25:00,1,28244403,201589
OK,626,75,915,626,2014-10-02T11:30:00,0,28244852,201589
OK,695,67,915,695,2014-10-02T11:35:00,2,28245301,201589
OK,780,60,915,780,2014-10-02T11:40:00,0,28245707,201589
OK,780,60,915,780,2014-10-02T11:45:00,0,28246156,201589
OK,603,78,915,603,2014-10-02T11:50:00,6,28246593,201589
OK,604,77,915,604,2014-10-02T11:55:00,9,28247042,201589
OK,596,78,915,596,2014-10-02T12:00:00,7,28247488,201589
OK,581,80,915,581,2014-10-02T12:05:00,2,28247918,201589
OK,581,80,915,581,2014-10-02T12:10:00,0,28248367,201589
OK,616,76,915,616,2014-10-02T12:15:00,11,28248814,201589
OK,637,73,915,637,2014-10-02T12:20:00,3,28249242,201589
OK,588,80,915,588,2014-10-02T12:25:00,3,28249686,201589
OK,633,74,915,633,2014-10-02T12:30:00,0,28250105,201589
OK,618,76,915,618,2014-10-02T12:35:00,6,28250503,201589
OK,620,75,915,620,2014-10-02T13:20:00,14,28251828,201589
OK,622,75,915,622,2014-10-02T13:30:00,7,28252412,201589
OK,601,78,915,601,2014-10-02T13:35:00,1,28252854,201589
OK,601,78,915,601,2014-10-02T13:40:00,0,28253271,201589
OK,666,70,915,666,2014-10-02T13:45:00,15,28253720,201589
OK,612,76,915,612,2014-10-02T13:50:00,1,28254125,201589
OK,622,75,915,622,2014-10-02T13:55:00,3,28254446,201589
OK,713,65,915,713,2014-10-02T14:10:00,10,28255023,201589
OK,631,74,915,631,2014-10-02T14:15:00,10,28255472,201589
OK,613,76,915,613,2014-10-02T14:20:00,6,28255900,201589
OK,570,82,915,570,2014-10-02T14:25:00,1,28256349,201589
OK,629,74,915,629,2014-10-02T14:30:00,9,28256777,201589
OK,623,75,915,623,2014-10-02T14:35:00,13,28257226,201589
OK,594,79,915,594,2014-10-02T14:40:00,8,28257667,201589
OK,599,78,915,599,2014-10-02T14:45:00,18,28258115,201589
OK,589,79,915,589,2014-10-02T14:50:00,13,28258548,201589
OK,589,79,915,589,2014-10-02T14:55:00,9,28258994,201589
OK,617,76,915,617,2014-10-02T15:00:00,6,28259443,201589